User: anonymous   Login
Location: East Fork Observatory
(32.9757°N, 94.4485°W)
Time: 17:14:57
(UTC-06:00)
Language:

NUDT-PHONESAT - Orbit

View from above orbital plane
View from above orbital plane
View from above satellite
View from above satellite

Ground track
Ground track

The orbit data is extracted from the following two-line orbital elements,

1 40900U 15049B   19349.86287130  .00001742  00000-0  76161-4 0  9992
2 40900  97.4346 357.4753 0011033 274.4799 206.1045 15.23393405235083
Epoch (UTC): 15 December 2019 20:42:32
Eccentricity: 0.0011033
inclination: 97.4346°
perigee height: 488 km
apogee height: 503 km
right ascension of ascending node: 357.4753°
argument of perigee: 274.4799°
revolutions per day: 15.23393405
mean anomaly at epoch: 206.1045°
orbit number at epoch: 23508

The dashed part of the orbit path shows where the satellite is in the earth's shadow,  

DLR